User: anonymous   Login
Location: La Comballaz
(46.3780°N, 7.0817°E)
Time: 19:39:16
(UTC+00:00)
Language:

N. Korean satellite - Orbit

View from above orbital plane
View from above orbital plane
View from above satellite
View from above satellite

Ground track
Ground track

The orbit data is extracted from the following two-line orbital elements,

1 39026U 12072A   22018.51377997  .00010334  00000-0  32893-3 0  9992
2 39026  97.2593  11.5806 0032968 340.2122  19.7839 15.32224948505995
Epoch (UTC): 18 January 2022 12:19:50
Eccentricity: 0.0032968
inclination: 97.2593°
perigee height: 446 km
apogee height: 492 km
right ascension of ascending node: 11.5806°
argument of perigee: 340.2122°
revolutions per day: 15.32224948
mean anomaly at epoch: 19.7839°
orbit number at epoch: 50599

The dashed part of the orbit path shows where the satellite is in the earth's shadow,  

DLR